Time,TemperatureF,DewpointF,PressureIn,WindDirection,WindDirectionDegrees,WindSpeedMPH,WindSpeedGustMPH,Humidity,HourlyPrecipIn,Conditions,Clouds,dailyrainin,SolarRadiationWatts/m^2,SoftwareType,DateUTC
2013-01-23 00:02:00,60.0,56.0,-100.00,NNE,27,0.0,0.0,88,0.00,,,0.00,0.000000,,2013-01-23 10:02:00,
2013-01-23 00:12:00,60.0,56.0,-100.00,NNE,27,0.0,0.0,88,0.00,,,0.00,0.000000,,2013-01-23 10:12:00,
2013-01-23 00:22:00,60.0,56.0,-100.00,NNE,27,0.0,0.0,88,0.00,,,0.00,0.000000,,2013-01-23 10:22:00,
2013-01-23 00:32:00,60.0,56.0,-100.00,NNE,27,0.0,0.0,88,0.00,,,0.00,0.000000,,2013-01-23 10:32:00,
2013-01-23 00:53:00,60.0,59.0,-100.00,NNE,23,0.0,0.0,95,0.00,,,0.00,0.000000,,2013-01-23 10:53:00,
2013-01-23 01:02:00,60.0,59.0,-100.00,NNE,23,0.0,0.0,95,0.00,,,0.00,0.000000,,2013-01-23 11:02:00,
2013-01-23 01:12:00,60.0,59.0,-100.00,NNE,23,0.0,0.0,95,0.00,,,0.00,0.000000,,2013-01-23 11:12:00,
2013-01-23 01:22:00,60.0,59.0,-100.00,NNE,23,0.0,0.0,95,0.00,,,0.00,0.000000,,2013-01-23 11:22:00,
2013-01-23 01:32:00,60.0,59.0,-100.00,NNE,23,0.0,0.0,95,0.00,,,0.00,0.000000,,2013-01-23 11:32:00,
2013-01-23 01:53:00,60.0,58.0,-100.00,NNE,29,0.0,0.0,93,0.00,,,0.00,0.000000,,2013-01-23 11:53:00,
2013-01-23 02:03:00,60.0,58.0,-100.00,NNE,29,0.0,0.0,93,0.00,,,0.00,0.000000,,2013-01-23 12:03:00,
2013-01-23 02:12:00,60.0,58.0,-100.00,NNE,29,0.0,0.0,93,0.00,,,0.00,0.000000,,2013-01-23 12:12:00,
2013-01-23 02:22:00,60.0,58.0,-100.00,NNE,29,0.0,0.0,93,0.00,,,0.00,0.000000,,2013-01-23 12:22:00,
2013-01-23 02:32:00,60.0,58.0,-100.00,NNE,29,0.0,0.0,93,0.00,,,0.00,0.000000,,2013-01-23 12:32:00,
2013-01-23 02:53:00,60.0,58.0,-100.00,NNE,29,0.0,0.0,93,0.01,,,0.01,0.000000,,2013-01-23 12:53:00,
2013-01-23 03:03:00,60.0,58.0,-100.00,NNE,29,0.0,0.0,93,0.01,,,0.01,0.000000,,2013-01-23 13:03:00,
2013-01-23 03:12:00,60.0,58.0,-100.00,NNE,29,0.0,0.0,93,0.01,,,0.01,0.000000,,2013-01-23 13:12:00,
2013-01-23 03:22:00,60.0,58.0,-100.00,NNE,29,0.0,0.0,93,0.01,,,0.01,0.000000,,2013-01-23 13:22:00,
2013-01-23 03:33:00,60.0,58.0,-100.00,NNE,29,0.0,0.0,93,0.01,,,0.01,0.000000,,2013-01-23 13:33:00,
2013-01-23 03:53:00,59.0,58.0,-100.00,NNE,21,0.0,0.0,98,0.01,,,0.02,0.000000,,2013-01-23 13:53:00,
2013-01-23 04:02:00,59.0,58.0,-100.00,NNE,21,0.0,0.0,98,0.01,,,0.02,0.000000,,2013-01-23 14:02:00,
2013-01-23 04:12:00,59.0,58.0,-100.00,NNE,21,0.0,0.0,98,0.01,,,0.02,0.000000,,2013-01-23 14:12:00,
2013-01-23 04:23:00,59.0,58.0,-100.00,NNE,21,0.0,0.0,98,0.01,,,0.02,0.000000,,2013-01-23 14:23:00,
2013-01-23 04:33:00,59.0,58.0,-100.00,NNE,21,0.0,0.0,98,0.01,,,0.02,0.000000,,2013-01-23 14:33:00,
2013-01-23 04:53:00,59.0,56.0,-100.00,NNE,25,0.0,0.0,91,0.00,,,0.02,0.000000,,2013-01-23 14:53:00,
2013-01-23 05:02:00,59.0,56.0,-100.00,NNE,25,0.0,0.0,91,0.00,,,0.02,0.000000,,2013-01-23 15:02:00,
2013-01-23 05:12:00,59.0,56.0,-100.00,NNE,25,0.0,0.0,91,0.00,,,0.02,0.000000,,2013-01-23 15:12:00,
2013-01-23 05:22:00,59.0,56.0,-100.00,NNE,25,0.0,0.0,91,0.00,,,0.02,0.000000,,2013-01-23 15:22:00,
2013-01-23 05:33:00,59.0,56.0,-100.00,NNE,25,0.0,0.0,91,0.00,,,0.02,0.000000,,2013-01-23 15:33:00,
2013-01-23 06:03:00,59.0,55.0,-100.00,NNE,25,0.0,0.0,86,0.00,,,-99.99,0.000000,,2013-01-23 16:03:00,
2013-01-23 06:12:00,59.0,55.0,-100.00,NNE,25,0.0,0.0,86,0.00,,,-99.99,0.000000,,2013-01-23 16:12:00,
2013-01-23 06:22:00,59.0,55.0,-100.00,NNE,25,0.0,0.0,86,0.00,,,-99.99,0.000000,,2013-01-23 16:22:00,
2013-01-23 06:32:00,59.0,55.0,-100.00,NNE,25,0.0,0.0,86,0.00,,,-99.99,0.000000,,2013-01-23 16:32:00,
2013-01-23 07:03:00,60.0,55.0,-100.00,NNE,25,0.0,0.0,85,0.00,,,0.02,0.000000,,2013-01-23 17:03:00,
2013-01-23 07:12:00,60.0,55.0,-100.00,NNE,25,0.0,0.0,85,0.00,,,0.02,0.000000,,2013-01-23 17:12:00,
2013-01-23 07:22:00,60.0,55.0,-100.00,NNE,25,0.0,0.0,85,0.00,,,0.02,0.000000,,2013-01-23 17:22:00,
2013-01-23 07:33:00,60.0,55.0,-100.00,NNE,25,0.0,0.0,85,0.00,,,0.02,0.000000,,2013-01-23 17:33:00,
2013-01-23 08:03:00,59.0,58.0,-100.00,NNE,27,0.0,0.0,95,0.00,,,0.02,0.000000,,2013-01-23 18:03:00,
2013-01-23 08:12:00,59.0,58.0,-100.00,NNE,27,0.0,0.0,95,0.00,,,0.02,0.000000,,2013-01-23 18:12:00,
2013-01-23 08:23:00,59.0,58.0,-100.00,NNE,27,0.0,0.0,95,0.00,,,0.02,0.000000,,2013-01-23 18:23:00,
2013-01-23 08:32:00,59.0,58.0,-100.00,NNE,27,0.0,0.0,95,0.00,,,0.02,0.000000,,2013-01-23 18:32:00,
2013-01-23 09:02:00,60.0,59.0,-100.00,NNE,27,0.0,0.0,98,0.06,,,0.08,0.000000,,2013-01-23 19:02:00,
2013-01-23 09:12:00,60.0,59.0,-100.00,NNE,27,0.0,0.0,98,0.06,,,0.08,0.000000,,2013-01-23 19:12:00,
2013-01-23 09:22:00,60.0,59.0,-100.00,NNE,27,0.0,0.0,98,0.06,,,0.08,0.000000,,2013-01-23 19:22:00,
2013-01-23 09:32:00,60.0,59.0,-100.00,NNE,27,0.0,0.0,98,0.06,,,0.08,0.000000,,2013-01-23 19:32:00,
2013-01-23 10:03:00,59.0,59.0,-100.00,NNE,27,0.0,0.0,99,0.04,,,0.12,0.000000,,2013-01-23 20:03:00,
2013-01-23 10:12:00,59.0,59.0,-100.00,NNE,27,0.0,0.0,99,0.04,,,0.12,0.000000,,2013-01-23 20:12:00,
2013-01-23 10:22:00,59.0,59.0,-100.00,NNE,27,0.0,0.0,99,0.04,,,0.12,0.000000,,2013-01-23 20:22:00,
2013-01-23 10:32:00,59.0,59.0,-100.00,NNE,27,0.0,0.0,99,0.04,,,0.12,0.000000,,2013-01-23 20:32:00,
2013-01-23 10:53:00,61.0,61.0,-100.00,NNE,20,0.0,0.0,99,0.02,,,0.14,0.000000,,2013-01-23 20:53:00,
2013-01-23 11:02:00,61.0,61.0,-100.00,NNE,20,0.0,0.0,99,0.02,,,0.14,0.000000,,2013-01-23 21:02:00,
2013-01-23 11:12:00,61.0,61.0,-100.00,NNE,20,0.0,0.0,99,0.02,,,0.14,0.000000,,2013-01-23 21:12:00,
2013-01-23 11:22:00,61.0,61.0,-100.00,NNE,20,0.0,0.0,99,0.02,,,0.14,0.000000,,2013-01-23 21:22:00,
2013-01-23 11:33:00,61.0,61.0,-100.00,NNE,20,0.0,0.0,99,0.02,,,0.14,0.000000,,2013-01-23 21:33:00,
2013-01-23 11:53:00,61.0,61.0,-100.00,NNE,18,0.0,0.0,99,0.00,,,0.14,0.000000,,2013-01-23 21:53:00,
2013-01-23 12:02:00,61.0,61.0,-100.00,NNE,18,0.0,0.0,99,0.00,,,0.14,0.000000,,2013-01-23 22:02:00,
2013-01-23 12:12:00,61.0,61.0,-100.00,NNE,18,0.0,0.0,99,0.00,,,0.14,0.000000,,2013-01-23 22:12:00,
2013-01-23 12:22:00,61.0,61.0,-100.00,NNE,18,0.0,0.0,99,0.00,,,0.14,0.000000,,2013-01-23 22:22:00,
2013-01-23 12:33:00,61.0,61.0,-100.00,NNE,18,0.0,0.0,99,0.00,,,0.14,0.000000,,2013-01-23 22:33:00,
2013-01-23 13:03:00,61.0,61.0,-100.00,NNE,13,0.0,0.0,99,0.01,,,-99.99,0.000000,,2013-01-23 23:03:00,
2013-01-23 13:12:00,61.0,61.0,-100.00,NNE,13,0.0,0.0,99,0.01,,,-99.99,0.000000,,2013-01-23 23:12:00,
2013-01-23 13:22:00,61.0,61.0,-100.00,NNE,13,0.0,0.0,99,0.01,,,-99.99,0.000000,,2013-01-23 23:22:00,
2013-01-23 13:33:00,61.0,61.0,-100.00,NNE,13,0.0,0.0,99,0.01,,,-99.99,0.000000,,2013-01-23 23:33:00,
2013-01-23 14:03:00,62.0,62.0,-100.00,North,6,0.0,0.0,99,0.00,,,-99.99,0.000000,,2013-01-24 00:03:00,
2013-01-23 14:12:00,62.0,62.0,-100.00,North,6,0.0,0.0,99,0.00,,,-99.99,0.000000,,2013-01-24 00:12:00,
2013-01-23 14:22:00,62.0,62.0,-100.00,North,6,0.0,0.0,99,0.00,,,-99.99,0.000000,,2013-01-24 00:22:00,
2013-01-23 14:32:00,62.0,62.0,-100.00,North,6,0.0,0.0,99,0.00,,,-99.99,0.000000,,2013-01-24 00:32:00,
2013-01-23 15:02:00,62.0,62.0,-100.00,NNE,24,0.0,0.0,99,0.07,,,0.22,0.000000,,2013-01-24 01:02:00,
2013-01-23 15:12:00,62.0,62.0,-100.00,NNE,24,0.0,0.0,99,0.07,,,0.22,0.000000,,2013-01-24 01:12:00,
2013-01-23 15:22:00,62.0,62.0,-100.00,NNE,24,0.0,0.0,99,0.07,,,0.22,0.000000,,2013-01-24 01:22:00,
2013-01-23 15:32:00,62.0,62.0,-100.00,NNE,24,0.0,0.0,99,0.07,,,0.22,0.000000,,2013-01-24 01:32:00,
2013-01-23 16:02:00,62.0,62.0,-100.00,North,355,0.0,0.0,99,0.03,,,0.25,0.000000,,2013-01-24 02:02:00,
2013-01-23 16:12:00,62.0,62.0,-100.00,North,355,0.0,0.0,99,0.03,,,0.25,0.000000,,2013-01-24 02:12:00,
2013-01-23 16:22:00,62.0,62.0,-100.00,North,355,0.0,0.0,99,0.03,,,0.25,0.000000,,2013-01-24 02:22:00,
2013-01-23 16:32:00,62.0,62.0,-100.00,North,355,0.0,0.0,99,0.03,,,0.25,0.000000,,2013-01-24 02:32:00,
2013-01-23 17:02:00,62.0,62.0,-100.00,North,8,0.0,0.0,99,0.02,,,-99.99,0.000000,,2013-01-24 03:02:00,
2013-01-23 17:12:00,62.0,62.0,-100.00,North,8,0.0,0.0,99,0.02,,,-99.99,0.000000,,2013-01-24 03:12:00,
2013-01-23 17:22:00,62.0,62.0,-100.00,North,8,0.0,0.0,99,0.02,,,-99.99,0.000000,,2013-01-24 03:22:00,
2013-01-23 17:32:00,62.0,62.0,-100.00,North,8,0.0,0.0,99,0.02,,,-99.99,0.000000,,2013-01-24 03:32:00,
2013-01-23 17:53:00,61.0,61.0,-100.00,NNE,27,0.0,0.0,99,0.03,,,0.30,0.000000,,2013-01-24 03:53:00,
2013-01-23 18:02:00,61.0,61.0,-100.00,NNE,27,0.0,0.0,99,0.03,,,0.30,0.000000,,2013-01-24 04:02:00,
2013-01-23 18:12:00,61.0,61.0,-100.00,NNE,27,0.0,0.0,99,0.03,,,0.30,0.000000,,2013-01-24 04:12:00,
2013-01-23 18:22:00,61.0,61.0,-100.00,NNE,27,0.0,0.0,99,0.03,,,0.30,0.000000,,2013-01-24 04:22:00,
2013-01-23 18:32:00,61.0,61.0,-100.00,NNE,27,0.0,0.0,99,0.03,,,0.30,0.000000,,2013-01-24 04:32:00,
2013-01-23 19:03:00,61.0,61.0,-100.00,North,354,0.0,0.0,100,0.08,,,-99.99,0.000000,,2013-01-24 05:03:00,
2013-01-23 19:12:00,61.0,61.0,-100.00,North,354,0.0,0.0,100,0.08,,,-99.99,0.000000,,2013-01-24 05:12:00,
2013-01-23 19:22:00,61.0,61.0,-100.00,North,354,0.0,0.0,100,0.08,,,-99.99,0.000000,,2013-01-24 05:22:00,
2013-01-23 19:32:00,61.0,61.0,-100.00,North,354,0.0,0.0,100,0.08,,,-99.99,0.000000,,2013-01-24 05:32:00,
2013-01-23 20:02:00,62.0,62.0,-100.00,North,355,0.0,0.0,100,0.18,,,0.56,0.000000,,2013-01-24 06:02:00,
2013-01-23 20:12:00,62.0,62.0,-100.00,North,355,0.0,0.0,100,0.18,,,0.56,0.000000,,2013-01-24 06:12:00,
2013-01-23 20:22:00,62.0,62.0,-100.00,North,355,0.0,0.0,100,0.18,,,0.56,0.000000,,2013-01-24 06:22:00,
2013-01-23 20:32:00,62.0,62.0,-100.00,North,355,0.0,0.0,100,0.18,,,0.56,0.000000,,2013-01-24 06:32:00,
2013-01-23 21:02:00,62.0,62.0,-100.00,North,356,0.0,0.0,100,0.27,,,0.83,0.000000,,2013-01-24 07:02:00,
2013-01-23 21:12:00,62.0,62.0,-100.00,North,356,0.0,0.0,100,0.27,,,0.83,0.000000,,2013-01-24 07:12:00,
2013-01-23 21:22:00,62.0,62.0,-100.00,North,356,0.0,0.0,100,0.27,,,0.83,0.000000,,2013-01-24 07:22:00,
2013-01-23 21:32:00,62.0,62.0,-100.00,North,356,0.0,0.0,100,0.27,,,0.83,0.000000,,2013-01-24 07:32:00,
2013-01-23 22:02:00,62.0,62.0,-100.00,North,357,0.0,0.0,100,0.09,,,0.92,0.000000,,2013-01-24 08:02:00,
2013-01-23 22:12:00,62.0,62.0,-100.00,North,357,0.0,0.0,100,0.09,,,0.92,0.000000,,2013-01-24 08:12:00,
2013-01-23 22:22:00,62.0,62.0,-100.00,North,357,0.0,0.0,100,0.09,,,0.92,0.000000,,2013-01-24 08:22:00,
2013-01-23 22:32:00,62.0,62.0,-100.00,North,357,0.0,0.0,100,0.09,,,0.92,0.000000,,2013-01-24 08:32:00,
2013-01-23 22:53:00,62.0,62.0,-100.00,NW,316,0.0,0.0,100,0.20,,,1.12,0.000000,,2013-01-24 08:53:00,
2013-01-23 23:02:00,62.0,62.0,-100.00,NW,316,0.0,0.0,100,0.20,,,1.12,0.000000,,2013-01-24 09:02:00,
2013-01-23 23:12:00,62.0,62.0,-100.00,NW,316,0.0,0.0,100,0.20,,,1.12,0.000000,,2013-01-24 09:12:00,
2013-01-23 23:22:00,62.0,62.0,-100.00,NW,316,0.0,0.0,100,0.20,,,1.12,0.000000,,2013-01-24 09:22:00,
2013-01-23 23:32:00,62.0,62.0,-100.00,NW,316,0.0,0.0,100,0.20,,,1.12,0.000000,,2013-01-24 09:32:00,